When you browse on this site, cookies collect data to enhance your experience and personalize the content and advertising you see.
Visit our Privacy Policy to learn more. By continuing to use the site, you agree to this use of cookies and data.
  • In Hungary
  • List of Countries
  • For 7 days
  • Water Temperature
  • Satellite Maps
  • Weather Map
  • News
  • Weather Widgets
  • user-avatar
    Login

    Hourly Weather karaikal

    Today, 22 March, Friday

    Time Temperature Precipitation Wind Pressure Humidity
    00:00 +28°C° 0 mm 3 mps 759 mmHg 86%
    01:00 +27°C° 0 mm 3 mps 759 mmHg 87%
    02:00 +27°C° 0 mm 3 mps 759 mmHg 88%
    03:00 +27°C° 0 mm 3 mps 759 mmHg 88%
    04:00 +27°C° 0 mm 2 mps 759 mmHg 89%
    05:00 +27°C° 0 mm 2 mps 759 mmHg 89%
    06:00 +28°C° 0 mm 1 mps 759 mmHg 81%
    07:00 +29°C° 0 mm 1 mps 760 mmHg 73%
    08:00 +31°C° 0 mm 1 mps 760 mmHg 65%
    09:00 +32°C° 0 mm 1 mps 760 mmHg 58%
    10:00 +35°C° 0 mm 2 mps 760 mmHg 51%
    11:00 +36°C° 0 mm 2 mps 760 mmHg 44%
    12:00 +36°C° 0 mm 3 mps 759 mmHg 43%
    13:00 +37°C° 0 mm 4 mps 758 mmHg 43%
    14:00 +39°C° 0 mm 5 mps 757 mmHg 42%
    15:00 +36°C° 0 mm 5 mps 757 mmHg 48%
    16:00 +35°C° 0 mm 5 mps 757 mmHg 54%
    17:00 +33°C° 0 mm 5 mps 757 mmHg 60%
    18:00 +32°C° 0 mm 5 mps 757 mmHg 65%
    19:00 +30°C° 0 mm 4 mps 758 mmHg 71%
    20:00 +28°C° 0 mm 4 mps 758 mmHg 77%
    21:00 +28°C° 0 mm 4 mps 759 mmHg 79%
    22:00 +28°C° 0 mm 4 mps 759 mmHg 82%
    23:00 +28°C° 0 mm 4 mps 759 mmHg 84%

    Tomorrow, 23 March, Saturday

    Time Temperature Precipitation Wind Pressure Humidity
    00:00 +28°C° 0 mm 3 mps 759 mmHg 85%
    01:00 +27°C° 0 mm 3 mps 758 mmHg 87%
    02:00 +27°C° 0 mm 3 mps 758 mmHg 88%
    03:00 +27°C° 0 mm 2 mps 758 mmHg 88%
    04:00 +27°C° 0 mm 2 mps 758 mmHg 88%
    05:00 +26°C° 0 mm 2 mps 758 mmHg 88%
    06:00 +28°C° 0 mm 1 mps 759 mmHg 81%
    07:00 +29°C° 0 mm 1 mps 759 mmHg 74%
    08:00 +31°C° 0 mm 1 mps 760 mmHg 67%
    09:00 +33°C° 0 mm 1 mps 760 mmHg 58%
    10:00 +35°C° 0 mm 2 mps 760 mmHg 48%
    11:00 +37°C° 0 mm 2 mps 759 mmHg 38%
    12:00 +38°C° 0 mm 3 mps 758 mmHg 36%
    13:00 +38°C° 0 mm 4 mps 758 mmHg 33%
    14:00 +40°C° 0 mm 4 mps 757 mmHg 31%
    15:00 +37°C° 0 mm 4 mps 756 mmHg 36%
    16:00 +36°C° 0 mm 4 mps 756 mmHg 41%
    17:00 +35°C° 0 mm 4 mps 756 mmHg 47%
    18:00 +33°C° 0 mm 4 mps 756 mmHg 55%
    19:00 +30°C° 0 mm 4 mps 757 mmHg 63%
    20:00 +28°C° 0 mm 4 mps 758 mmHg 71%
    21:00 +28°C° 0 mm 4 mps 758 mmHg 72%
    22:00 +28°C° 0 mm 4 mps 758 mmHg 73%
    23:00 +28°C° 0 mm 3 mps 758 mmHg 74%

    Day after tomorrow, 24 March, Sunday

    Time Temperature Precipitation Wind Pressure Humidity
    00:00 +28°C° 0 mm 3 mps 758 mmHg 76%
    01:00 +28°C° 0 mm 3 mps 757 mmHg 78%
    02:00 +28°C° 0 mm 3 mps 757 mmHg 79%
    03:00 +27°C° 0 mm 3 mps 757 mmHg 81%
    04:00 +27°C° 0 mm 3 mps 757 mmHg 82%
    05:00 +27°C° 0 mm 3 mps 757 mmHg 84%
    06:00 +28°C° 0 mm 3 mps 757 mmHg 77%
    07:00 +30°C° 0 mm 3 mps 758 mmHg 70%
    08:00 +31°C° 0 mm 3 mps 759 mmHg 64%
    09:00 +34°C° 0 mm 4 mps 758 mmHg 55%
    10:00 +36°C° 0 mm 4 mps 758 mmHg 46%
    11:00 +38°C° 0 mm 4 mps 758 mmHg 38%
    12:00 +38°C° 0 mm 4 mps 757 mmHg 36%
    13:00 +40°C° 0 mm 5 mps 756 mmHg 35%
    14:00 +40°C° 0 mm 5 mps 755 mmHg 33%
    15:00 +39°C° 0 mm 5 mps 755 mmHg 38%
    16:00 +36°C° 0 mm 5 mps 755 mmHg 42%
    17:00 +35°C° 0 mm 5 mps 755 mmHg 46%
    18:00 +33°C° 0 mm 4 mps 756 mmHg 55%
    19:00 +32°C° 0 mm 4 mps 757 mmHg 63%
    20:00 +29°C° 0 mm 4 mps 757 mmHg 72%
    21:00 +29°C° 0 mm 4 mps 758 mmHg 73%
    22:00 +29°C° 0 mm 4 mps 758 mmHg 75%
    23:00 +28°C° 0 mm 4 mps 758 mmHg 76%

    25 March, Monday

    Time Temperature Precipitation Wind Pressure Humidity
    00:00 +28°C° 0 mm 3 mps 758 mmHg 77%
    01:00 +28°C° 0 mm 3 mps 757 mmHg 78%
    02:00 +28°C° 0 mm 3 mps 757 mmHg 78%
    03:00 +28°C° 0 mm 3 mps 757 mmHg 79%
    04:00 +27°C° 0 mm 3 mps 757 mmHg 80%
    05:00 +27°C° 0 mm 3 mps 757 mmHg 81%
    06:00 +29°C° 0 mm 3 mps 757 mmHg 74%
    07:00 +30°C° 0 mm 3 mps 758 mmHg 67%
    08:00 +33°C° 0 mm 3 mps 759 mmHg 60%
    09:00 +34°C° 0 mm 3 mps 759 mmHg 53%
    10:00 +36°C° 0 mm 4 mps 759 mmHg 46%
    11:00 +37°C° 0 mm 4 mps 758 mmHg 39%
    12:00 +37°C° 0 mm 5 mps 758 mmHg 38%
    13:00 +37°C° 0 mm 5 mps 757 mmHg 38%
    14:00 +37°C° 0 mm 5 mps 756 mmHg 38%
    15:00 +36°C° 0 mm 5 mps 756 mmHg 44%
    16:00 +35°C° 0 mm 5 mps 756 mmHg 49%
    17:00 +33°C° 0 mm 5 mps 756 mmHg 55%
    18:00 +32°C° 0 mm 5 mps 757 mmHg 61%
    19:00 +30°C° 0 mm 4 mps 757 mmHg 67%
    20:00 +29°C° 0 mm 4 mps 758 mmHg 72%
    21:00 +29°C° 0 mm 4 mps 758 mmHg 73%
    22:00 +28°C° 0 mm 4 mps 758 mmHg 74%
    23:00 +28°C° 0 mm 3 mps 759 mmHg 74%

    26 March, Tuesday

    Time Temperature Precipitation Wind Pressure Humidity
    00:00 +28°C° 0 mm 3 mps 758 mmHg 75%
    01:00 +28°C° 0 mm 3 mps 758 mmHg 76%
    02:00 +27°C° 0 mm 3 mps 757 mmHg 77%
    03:00 +27°C° 0 mm 2 mps 757 mmHg 77%
    04:00 +27°C° 0 mm 2 mps 758 mmHg 77%
    05:00 +27°C° 0 mm 2 mps 758 mmHg 78%
    06:00 +28°C° 0 mm 2 mps 758 mmHg 70%
    07:00 +30°C° 0 mm 2 mps 759 mmHg 62%
    08:00 +31°C° 0 mm 3 mps 760 mmHg 55%
    09:00 +34°C° 0 mm 3 mps 760 mmHg 50%
    10:00 +35°C° 0 mm 4 mps 759 mmHg 44%
    11:00 +36°C° 0 mm 4 mps 759 mmHg 39%
    12:00 +37°C° 0 mm 4 mps 758 mmHg 39%
    13:00 +37°C° 0 mm 5 mps 758 mmHg 39%
    14:00 +37°C° 0 mm 5 mps 757 mmHg 39%
    15:00 +36°C° 0 mm 5 mps 757 mmHg 43%
    16:00 +34°C° 0 mm 5 mps 757 mmHg 47%
    17:00 +33°C° 0 mm 5 mps 757 mmHg 51%
    18:00 +32°C° 0 mm 4 mps 758 mmHg 57%
    19:00 +30°C° 0 mm 4 mps 758 mmHg 63%
    20:00 +28°C° 0 mm 4 mps 759 mmHg 68%
    21:00 +28°C° 0 mm 4 mps 759 mmHg 70%
    22:00 +28°C° 0 mm 3 mps 759 mmHg 71%
    23:00 +28°C° 0 mm 3 mps 759 mmHg 72%

    27 March, Wednesday

    Time Temperature Precipitation Wind Pressure Humidity
    00:00 +27°C° 0 mm 3 mps 759 mmHg 74%
    01:00 +27°C° 0 mm 3 mps 758 mmHg 75%
    02:00 +27°C° 0 mm 2 mps 758 mmHg 76%
    03:00 +27°C° 0 mm 2 mps 758 mmHg 77%
    04:00 +26°C° 0 mm 2 mps 758 mmHg 78%
    05:00 +26°C° 0 mm 1 mps 758 mmHg 79%
    06:00 +28°C° 0 mm 1 mps 759 mmHg 72%
    07:00 +30°C° 0 mm 1 mps 760 mmHg 66%
    08:00 +31°C° 0 mm 1 mps 760 mmHg 59%
    09:00 +34°C° 0 mm 2 mps 760 mmHg 53%
    10:00 +35°C° 0 mm 2 mps 760 mmHg 47%
    11:00 +36°C° 0 mm 3 mps 759 mmHg 42%
    12:00 +37°C° 0 mm 4 mps 759 mmHg 42%
    13:00 +37°C° 0 mm 4 mps 758 mmHg 42%
    14:00 +37°C° 0 mm 5 mps 757 mmHg 43%
    15:00 +36°C° 0 mm 5 mps 757 mmHg 48%
    16:00 +35°C° 0 mm 5 mps 757 mmHg 53%
    17:00 +33°C° 0 mm 5 mps 757 mmHg 58%
    18:00 +32°C° 0 mm 5 mps 758 mmHg 64%
    19:00 +30°C° 0 mm 5 mps 758 mmHg 69%
    20:00 +29°C° 0 mm 5 mps 759 mmHg 74%
    21:00 +29°C° 0 mm 4 mps 759 mmHg 76%
    22:00 +28°C° 0 mm 4 mps 759 mmHg 78%
    23:00 +28°C° 0 mm 4 mps 759 mmHg 79%
    Show more